Change the Weather History Date:

Sunday, December 30, 2012

  Actual Average Record
Temperature  
Mean Temperature 34 °F -  
Max Temperature 45 °F 49 °F 51 °F (2011)
Min Temperature 24 °F 21 °F 16 °F (2014)
Degree Days  
Heating Degree Days 30    
Moisture  
Dew Point 15 °F    
Average Humidity 44    
Maximum Humidity 67    
Minimum Humidity 28    
Precipitation  
Precipitation 0.00 in - - ()
Sea Level Pressure  
Sea Level Pressure 29.96 in    
Wind  
Wind Speed 4 mph (South)    
Max Wind Speed 14 mph    
Max Gust Speed 18 mph    
Visibility 10 miles    
Events      
Averages and records for this station are not official NWS values.
T = Trace of Precipitation, MM = Missing Value Source: NWS Daily Summary

Daily Weather History Graph

Daily Weather History Graph

Search for Another Location

Airport or City:

Trip Planner

Search our weather history database for the weather conditions in past years. The results will help you decide how hot, cold, wet, or windy it might be!

Date:

Astronomy

Dec. 30, 2012 Rise Set
Actual Time 7:12 AM MST 5:08 PM MST
Civil Twilight 6:45 AM MST 5:35 PM MST
Nautical Twilight 6:13 AM MST 6:07 PM MST
Astronomical Twilight 5:43 AM MST 6:37 PM MST
Moon 7:34 PM MST (12/30) 8:29 AM MST (12/30)
Length of Visible Light 10h 50m
Length of Day
9h 55m
Waning Gibbous, 95% of the Moon is Illuminated
Dec 30
Waning Gibbous
Jan 4
Last Quarter
Jan 11
New
Jan 18
First Quarter
Jan 26
Full

Hourly Weather History & Observations

Time (MST) Temp. Windchill Dew Point Humidity Pressure Visibility Wind Dir Wind Speed Gust Speed Precip Events Conditions
12:15 AM 28.0 °F - 11.8 °F 51% 30.11 in 10.0 mi Calm Calm - N/A   Clear
12:35 AM 28.8 °F - 11.8 °F 49% 30.09 in 10.0 mi Calm Calm - N/A   Clear
12:55 AM 28.9 °F - 11.8 °F 49% 30.09 in 10.0 mi Calm Calm - N/A   Clear
1:15 AM 27.5 °F - 12.2 °F 53% 30.09 in 10.0 mi Calm Calm - N/A   Clear
1:35 AM 27.9 °F - 12.0 °F 52% 30.09 in 10.0 mi Calm Calm - N/A   Clear
1:55 AM 27.1 °F - 12.2 °F 53% 30.09 in 10.0 mi Calm Calm - N/A   Clear
2:15 AM 25.2 °F 18.3 °F 13.5 °F 61% 30.09 in 10.0 mi NW 5.8 mph - N/A   Clear
2:35 AM 24.8 °F 20.5 °F 12.9 °F 61% 30.09 in 10.0 mi NNW 3.5 mph - N/A   Clear
6:35 AM 24.6 °F 16.7 °F 9.3 °F 52% 30.06 in 10.0 mi NNW 6.9 mph - N/A   Clear
6:55 AM 24.8 °F 19.1 °F 9.1 °F 51% 30.06 in 10.0 mi NNW 4.6 mph - N/A   Clear
7:15 AM 25.2 °F - 9.5 °F 52% 30.05 in 10.0 mi Calm Calm - N/A   Scattered Clouds
7:35 AM 24.6 °F 20.3 °F 10.4 °F 55% 30.05 in 10.0 mi NW 3.5 mph - N/A   Clear
7:55 AM 25.7 °F - 10.4 °F 52% 30.05 in 10.0 mi Calm Calm - N/A   Scattered Clouds
8:15 AM 25.5 °F - 10.4 °F 53% 30.04 in 10.0 mi Calm Calm - N/A   Scattered Clouds
8:35 AM 27.0 °F 21.6 °F 10.4 °F 50% 30.04 in 10.0 mi NW 4.6 mph - N/A   Scattered Clouds
8:55 AM 28.4 °F 23.3 °F 10.0 °F 46% 30.05 in 10.0 mi NNW 4.6 mph - N/A   Scattered Clouds
9:15 AM 29.3 °F 24.3 °F 10.6 °F 46% 30.05 in 10.0 mi NNW 4.6 mph - N/A   Scattered Clouds
9:35 AM 30.0 °F 22.4 °F 10.2 °F 44% 30.05 in 10.0 mi North 8.1 mph - N/A   Clear
9:55 AM 31.1 °F 26.4 °F 10.0 °F 41% 30.05 in 10.0 mi North 4.6 mph - N/A   Clear
10:15 AM 32.9 °F 28.5 °F 10.6 °F 40% 30.05 in 10.0 mi North 4.6 mph - N/A   Clear
10:35 AM 33.8 °F - 10.2 °F 38% 30.05 in 10.0 mi Calm Calm - N/A   Clear
10:55 AM 34.7 °F - 9.7 °F 35% 30.05 in 10.0 mi Calm Calm - N/A   Clear
11:15 AM 35.8 °F - 10.4 °F 35% 30.03 in 10.0 mi Calm Calm - N/A   Clear
11:35 AM 36.9 °F 33.1 °F 11.3 °F 35% 30.02 in 10.0 mi SSE 4.6 mph - N/A   Clear
11:55 AM 38.3 °F 34.8 °F 11.7 °F 34% 30.00 in 10.0 mi South 4.6 mph - N/A   Clear
12:15 PM 39.2 °F 33.6 °F 12.4 °F 33% 29.99 in 10.0 mi SSE 8.1 mph - N/A   Clear
12:35 PM 40.6 °F 35.4 °F 12.9 °F 32% 29.97 in 10.0 mi SE 8.1 mph - N/A   Clear
12:55 PM 42.6 °F 37.8 °F 13.8 °F 31% 29.96 in 10.0 mi SE 8.1 mph - N/A   Clear
1:15 PM 43.3 °F 38.6 °F 13.8 °F 30% 29.94 in 10.0 mi SE 8.1 mph - N/A   Clear
1:35 PM 45.3 °F 39.3 °F 14.2 °F 29% 29.95 in 10.0 mi SSE 12.7 mph 17.3 mph N/A   Clear
1:55 PM 45.5 °F 39.9 °F 13.8 °F 28% 29.92 in 10.0 mi SE 11.5 mph - N/A   Clear
2:15 PM 45.0 °F 38.9 °F 13.8 °F 29% 29.92 in 10.0 mi SSE 12.7 mph - N/A   Clear
2:35 PM 44.2 °F 38.0 °F 14.0 °F 30% 29.89 in 10.0 mi SE 12.7 mph - N/A   Scattered Clouds
2:55 PM 44.4 °F 37.9 °F 14.4 °F 30% 29.89 in 10.0 mi SSE 13.8 mph - N/A   Mostly Cloudy
3:15 PM 44.6 °F 38.1 °F 14.2 °F 29% 29.89 in 10.0 mi South 13.8 mph 18.4 mph N/A   Mostly Cloudy
3:35 PM 44.6 °F 38.1 °F 14.5 °F 30% 29.90 in 10.0 mi South 13.8 mph - N/A   Overcast
3:55 PM 44.2 °F 38.4 °F 14.7 °F 30% 29.90 in 10.0 mi South 11.5 mph - N/A   Overcast
4:15 PM 44.4 °F 39.0 °F 14.9 °F 30% 29.89 in 10.0 mi SSE 10.4 mph - N/A   Overcast
4:35 PM 43.7 °F 38.6 °F 15.6 °F 32% 29.87 in 10.0 mi SSE 9.2 mph - N/A   Overcast
4:55 PM 42.8 °F 38.6 °F 15.8 °F 34% 29.86 in 10.0 mi SSE 6.9 mph - N/A   Scattered Clouds
5:15 PM 42.1 °F 37.1 °F 16.0 °F 35% 29.86 in 10.0 mi SSE 8.1 mph - N/A   Mostly Cloudy
5:35 PM 42.1 °F 36.6 °F 15.6 °F 34% 29.86 in 10.0 mi South 9.2 mph - N/A   Overcast
5:55 PM 41.2 °F 36.0 °F 15.6 °F 36% 29.87 in 10.0 mi South 8.1 mph - N/A   Mostly Cloudy
6:15 PM 40.6 °F 34.8 °F 15.1 °F 35% 29.87 in 10.0 mi South 9.2 mph - N/A   Mostly Cloudy
6:35 PM 40.8 °F 36.2 °F 16.3 °F 37% 29.88 in 10.0 mi South 6.9 mph - N/A   Overcast
6:55 PM 40.5 °F 35.8 °F 16.7 °F 38% 29.88 in 10.0 mi SW 6.9 mph - N/A   Overcast
7:15 PM 40.1 °F 36.1 °F 16.9 °F 39% 29.89 in 10.0 mi SW 5.8 mph - N/A   Overcast
7:35 PM 41.2 °F 35.5 °F 18.1 °F 40% 29.89 in 10.0 mi South 9.2 mph - N/A   Overcast
7:55 PM 39.2 °F 35.0 °F 19.4 °F 45% 29.89 in 10.0 mi South 5.8 mph - N/A   Mostly Cloudy
8:15 PM 37.9 °F 33.5 °F 21.0 °F 51% 29.89 in 10.0 mi SE 5.8 mph - N/A   Overcast
8:35 PM 37.8 °F 35.3 °F 21.7 °F 53% 29.89 in 10.0 mi SSW 3.5 mph - N/A   Overcast
8:55 PM 39.4 °F 33.8 °F 23.7 °F 54% 29.90 in 10.0 mi SSW 8.1 mph - N/A   Overcast
9:15 PM 41.0 °F 36.4 °F 26.8 °F 57% 29.88 in 10.0 mi South 6.9 mph - N/A   Overcast
9:35 PM 38.3 °F 33.2 °F 25.7 °F 61% 29.86 in 10.0 mi SE 6.9 mph - N/A   Overcast
9:55 PM 37.4 °F 31.4 °F 26.4 °F 65% 29.86 in 10.0 mi South 8.1 mph - N/A   Mostly Cloudy
10:15 PM 37.8 °F 31.8 °F 26.4 °F 64% 29.86 in 10.0 mi South 8.1 mph - N/A   Mostly Cloudy
10:35 PM 37.9 °F 32.1 °F 25.5 °F 61% 29.86 in 10.0 mi South 8.1 mph - N/A   Overcast
10:55 PM 37.6 °F 30.5 °F 25.3 °F 61% 29.86 in 10.0 mi SSE 10.4 mph - N/A   Overcast
11:15 PM 37.4 °F 31.4 °F 23.5 °F 57% 29.87 in 10.0 mi South 8.1 mph - N/A   Overcast
11:35 PM 36.7 °F 30.5 °F 25.0 °F 63% 29.85 in 10.0 mi SSE 8.1 mph - N/A   Overcast
11:55 PM 36.5 °F 30.3 °F 26.4 °F 67% 29.85 in 10.0 mi South 8.1 mph - N/A   Mostly Cloudy